"TOA5","AWS1","CR1000","7964","CR1000.Std.14","CPU:AWS1_114.CR1","64363","TBL110"
"TIMESTAMP","RECORD","Wind_spd_WVc(1)","Wind_spd_WVc(2)","Air_Temp_Avg","Humidity_Avg","SW_upper_Wm2_Avg","Rain_Tot","Press_Avg","Issui_Tot","Depth_cm","SR50A_Raw","Quality","Ground_Temp_Avg(1)","Ground_Temp_Avg(2)","SW_lower_Wm2_Avg","Albedo_Avg","SWC_per(1)","SWC_per(2)","Period(1)","Period(2)"
"TS","RN","","","","","","","","","","","","","","","","","","",""
"","","WVc","WVc","Avg","Avg","Avg","Tot","Avg","Tot","Smp","Smp","Smp","Avg","Avg","Avg","Avg","Smp","Smp","Smp","Smp"
"2016-06-12 00:00:00",239533,0.2,188.2,12.76,100,0,0,867.9352,0,-4.695,3.154,200,18.38,17.1,0.2880051,0,47.2,54.52,32.59,34.4
"2016-06-12 00:10:00",239534,0.158,58.91,13.01,100,0,0,867.9121,0,-4.209,3.144,209,18.3,17.1,0.9170689,0,47.2,54.46,32.59,34.38
"2016-06-12 00:20:00",239535,0.132,152.2,13.58,95,0,0,867.8784,0,-21.65,3.318,206,18.3,17.1,0.9928597,0,47.14,54.46,32.58,34.38
"2016-06-12 00:30:00",239536,0.188,171.2,13.19,100,0,0,867.9079,0,-5.091,3.155,198,18.28,17.1,0.5570625,0,47.14,54.46,32.58,34.38
"2016-06-12 00:40:00",239537,0.052,158.6,13.25,100,0,0,867.8847,0,-5.018,3.155,200,18.26,17.1,0.4547449,0,47.14,54.46,32.58,34.38
"2016-06-12 00:50:00",239538,0.154,182.1,12.98,100,0,0,867.9121,0,-5.202,3.158,185,18.2,17.1,0.1629503,0,47.14,54.46,32.58,34.38
"2016-06-12 01:00:00",239539,0.148,173.5,12.9,100,0,0,867.891,0,-4.31,3.15,219,18.14,17.1,0.3979018,0,47.14,54.46,32.58,34.38
"2016-06-12 01:10:00",239540,0.112,171.7,12.64,100,0,0,867.6088,0,318,0,0,18.13,17.1,0.003789541,0,47.14,54.46,32.58,34.38
"2016-06-12 01:20:00",239541,0.203,202.5,12.75,100,0,0,867.5035,0,-35.7,3.456,216,18.1,17.1,0.2917947,0,47.14,54.46,32.58,34.38
"2016-06-12 01:30:00",239542,0.074,192.6,12.79,100,0,0,867.4066,0,-35.77,3.458,234,18.06,17.11,0.2842156,0,47.14,54.46,32.58,34.38
"2016-06-12 01:40:00",239543,0.445,181,12.55,100,0,0,867.1833,0,-34.49,3.447,215,18.04,17.12,0.07579082,0,47.14,54.41,32.58,34.37
"2016-06-12 01:50:00",239544,0.261,193.8,12.47,100,0,0,867.1581,0,-32.11,3.424,230,17.94,17.13,0.280426,0,47.14,54.46,32.58,34.38
"2016-06-12 02:00:00",239545,0.32,186.2,12.31,100,0,0,867.1876,0,-5.015,3.16,204,17.96,17.14,0.1856875,0,47.14,54.46,32.58,34.38
"2016-06-12 02:10:00",239546,0.241,206.6,12.44,100,0,0,867.3244,0,-2.932,3.137,276,17.96,17.14,0.5040089,0,47.14,54.41,32.58,34.37
"2016-06-12 02:20:00",239547,0.107,235.3,13.07,99.5,0,0,867.4066,0,-2.541,3.132,322,17.92,17.14,1.049703,0,47.14,54.46,32.58,34.38
"2016-06-12 02:30:00",239548,0.063,138,12.56,99.9,0,0,867.4066,0,-2.581,3.135,307,17.88,17.12,0.01136862,0,47.14,54.41,32.58,34.37
"2016-06-12 02:40:00",239549,0.037,167,12.48,100,0,0,867.4023,0,-2.352,3.133,242,17.83,17.05,0.1061071,0,47.14,54.41,32.58,34.37
"2016-06-12 02:50:00",239550,0.088,174.9,12.25,100,0,0,867.2529,0,12.05,2.994,405,17.79,16.99,0.03410587,0,47.14,54.41,32.58,34.37
"2016-06-12 03:00:00",239551,0.199,172.2,11.96,100,0,0,867.1559,0,0.825,3.105,442,17.78,16.97,0,0,47.14,54.41,32.58,34.37
"2016-06-12 03:10:00",239552,0.165,169.9,11.84,100,0,0,867.0928,0,318,0,0,17.69,16.99,0.09852806,0,47.14,54.41,32.58,34.37
"2016-06-12 03:20:00",239553,0.337,191.9,11.67,100,0,0,866.9432,0,-28.59,3.393,244,17.73,17.01,0.2349515,0,47.09,54.41,32.57,34.37
"2016-06-12 03:30:00",239554,0.151,187.9,11.76,100,0,0,866.9011,0,-21.85,3.328,194,17.63,17.04,0.2880051,0,47.14,54.41,32.58,34.37
"2016-06-12 03:40:00",239555,0.25,178.6,11.62,100,0,0,866.9011,0,19.53,2.923,312,17.63,17.05,0.3031633,0,47.14,54.41,32.58,34.37
"2016-06-12 03:50:00",239556,0.322,189,11.61,100,0,0,866.9117,0,19.31,2.926,270,17.63,17.06,0.3600064,0,47.09,54.41,32.57,34.37
"2016-06-12 04:00:00",239557,0.123,192.8,11.67,100,0,0,866.9432,0,18.98,2.927,270,17.58,17.06,0.6101161,0,47.14,54.41,32.58,34.37
"2016-06-12 04:10:00",239558,0.123,185.9,11.62,100,0,0,866.9053,0,18.21,2.937,242,17.55,17.06,0.3600064,0,47.14,54.46,32.58,34.38
"2016-06-12 04:20:00",239559,0.382,186.2,11.24,100,0,0,866.9011,0,18.53,2.935,271,17.5,17.06,0.3145319,0,47.09,54.41,32.57,34.37
"2016-06-12 04:30:00",239560,0.327,204.2,11.38,100,0,0,866.9032,0,18.25,2.936,260,17.45,17.03,0.8450677,0,47.14,54.41,32.58,34.37
"2016-06-12 04:40:00",239561,0.322,194.4,11.41,100,1.230179,0,866.9011,0,18.38,2.936,258,17.47,16.95,1.182337,0.87,47.14,54.41,32.58,34.37
"2016-06-12 04:50:00",239562,0.27,191.2,11.47,100,6.504619,0,866.9011,0,18.19,2.937,250,17.37,16.9,2.273725,0.363,47.14,54.41,32.58,34.37
"2016-06-12 05:00:00",239563,0.201,199.2,11.63,100,10.0065,0,866.9011,0,18.15,2.937,261,17.38,16.91,2.637521,0.265,47.14,54.41,32.58,34.37
"2016-06-12 05:10:00",239564,0.267,190.1,11.55,100,18.65705,0,866.9032,0,18.08,2.937,243,17.29,16.93,3.577327,0.192,47.14,54.41,32.58,34.37
"2016-06-12 05:20:00",239565,0,0,12.03,100,26.02241,0,867.1096,0,18.42,2.931,258,17.29,16.96,4.880929,0.188,47.14,54.41,32.58,34.37
"2016-06-12 05:30:00",239566,0.046,214.6,11.8,100,49.80455,0,867.1539,0,18.27,2.934,248,17.32,16.97,8.598468,0.172,47.14,54.41,32.58,34.37
"2016-06-12 05:40:00",239567,0.104,215,12.51,94.4,66.30388,0,867.1539,0,18.46,2.927,264,17.18,16.96,11.8461,0.179,47.14,54.41,32.58,34.37
"2016-06-12 05:50:00",239568,0.117,188.2,12.46,96.4,64.97544,0,867.0295,0,18.54,2.93,258,17.17,16.94,10.35682,0.16,47.14,54.35,32.58,34.36
"2016-06-12 06:00:00",239569,0.115,178.4,12.69,98.1,65.66325,0,866.9011,0,18.47,2.926,266,17.19,16.93,10.01576,0.152,47.14,54.35,32.58,34.36
"2016-06-12 06:10:00",239570,0.057,162.6,13.12,98.3,93.07697,0,866.9938,0,18.13,2.93,236,17.13,16.93,14.14257,0.152,47.14,54.35,32.58,34.36
"2016-06-12 06:20:00",239571,0.243,167.3,13.23,100,125.7258,0,866.8021,0,18.71,2.921,252,17.06,16.93,19.59571,0.156,47.14,54.35,32.58,34.36
"2016-06-12 06:30:00",239572,0.063,9.61,14.05,90.1,95.74564,0,866.9011,0,18.25,2.922,240,17.06,16.93,14.99142,0.156,47.14,54.35,32.58,34.36
"2016-06-12 06:40:00",239573,0.127,315.9,14.14,85.4,120.2903,0,866.9011,0,17.86,2.926,311,17.1,16.93,18.87949,0.156,47.14,54.35,32.58,34.36
"2016-06-12 06:50:00",239574,0.055,88.6,14.41,93.9,105.2648,0,866.8295,0,1.257,3.086,354,17.1,16.93,20.13762,0.185,47.14,54.35,32.58,34.36
"2016-06-12 07:00:00",239575,0,0,14.75,86.4,140.0753,0,866.819,0,4.652,3.052,355,17.1,16.92,33.14711,0.235,47.14,54.35,32.58,34.36
"2016-06-12 07:10:00",239576,0.151,61.05,15.28,82.2,187.392,0,866.7433,0,18.27,2.915,279,17.08,16.89,40.57082,0.215,47.14,54.35,32.58,34.36
"2016-06-12 07:20:00",239577,0.234,13.08,15.38,76.11,240.5058,0,866.8676,0,18.51,2.914,276,17.05,16.89,41.65084,0.172,47.14,54.41,32.58,34.37
"2016-06-12 07:30:00",239578,0.467,0.641,15.35,71.25,225.0266,0,866.7665,0,-22.6,3.314,194,17.02,16.91,37.36836,0.166,47.14,54.41,32.58,34.37
"2016-06-12 07:40:00",239579,0.182,11.62,15.61,71.29,293.9976,0,866.5689,0,-22.95,3.314,179,16.99,16.89,43.26623,0.148,47.14,54.41,32.58,34.37
"2016-06-12 07:50:00",239580,0.207,325.6,15.74,70.57,245.0431,0,866.3997,0,19.03,2.908,276,16.98,16.84,35.23085,0.143,47.14,54.41,32.58,34.37
"2016-06-12 08:00:00",239581,0.472,6.125,15.83,72.88,391.141,0,866.3784,0,19.74,2.899,268,16.95,16.79,59.13194,0.151,47.14,54.41,32.58,34.37
"2016-06-12 08:10:00",239582,0.291,11.46,15.81,76.53,215.7414,0,866.2167,0,19.8,2.9,274,16.93,16.77,31.718,0.147,47.09,54.41,32.57,34.37
"2016-06-12 08:20:00",239583,0.074,216.5,15.78,77.82,271.2745,0,865.8019,0,23.43,2.862,343,16.92,16.75,41.5205,0.152,47.14,54.41,32.58,34.37
"2016-06-12 08:30:00",239584,0.444,12.5,16.08,75.34,396.0736,0,865.9807,0,21.28,2.884,351,16.85,16.74,62.98039,0.158,47.14,54.41,32.58,34.37
"2016-06-12 08:40:00",239585,0.372,17.74,15.91,76.05,352.8205,0,866.0096,0,-11.57,3.204,170,16.85,16.74,54.94498,0.155,47.14,54.35,32.58,34.36
"2016-06-12 08:50:00",239586,0.563,12.17,15.97,75.93,544.3755,0,865.881,0,318,0,0,16.88,16.73,88.81184,0.163,47.14,54.41,32.58,34.37
"2016-06-12 09:00:00",239587,0.623,15.39,16.16,77.11,540.5681,0,865.86,0,19.2,2.902,338,16.91,16.7,87.07298,0.161,47.14,54.41,32.58,34.37
"2016-06-12 09:10:00",239588,0.376,35.55,16.51,77.84,466.3384,0,865.8052,0,-18.94,3.272,191,16.92,16.66,73.71181,0.158,47.09,54.35,32.57,34.36
"2016-06-12 09:20:00",239589,0.37,27.1,16.41,78.21,383.3512,0,865.8642,0,-21.88,3.302,203,16.97,16.62,59.50586,0.155,47.09,54.35,32.57,34.36
"2016-06-12 09:30:00",239590,0.569,20.21,16.2,77.57,536.7609,0,865.8031,0,19.55,2.901,349,17,16.62,86.22819,0.16,47.14,54.35,32.58,34.36
"2016-06-12 09:40:00",239591,0.427,5.618,16.5,75.95,729.9982,0,865.7989,0,19.71,2.896,302,16.93,16.61,118.1897,0.162,47.14,54.35,32.58,34.36
"2016-06-12 09:50:00",239592,0.371,325.5,17.43,72.87,771.9162,0,865.7989,0,-20.43,3.281,228,16.94,16.58,123.4591,0.16,47.09,54.35,32.57,34.36
"2016-06-12 10:00:00",239593,0.538,39.02,17.81,72.13,692.6732,0,865.7989,0,318,0,0,16.98,16.58,109.3933,0.157,47.09,54.35,32.57,34.36
"2016-06-12 10:10:00",239594,0.159,124.5,18.02,71.02,495.1376,0,865.6705,0,19.82,2.89,272,17.01,16.59,74.59068,0.149,47.09,54.35,32.57,34.36
"2016-06-12 10:20:00",239595,0.235,299.3,17.49,73.67,400.5718,0,865.5967,0,318,0,0,17.01,16.61,60.49839,0.149,47.04,54.35,32.55,34.36
"2016-06-12 10:30:00",239596,0.578,21.31,17.48,72.62,538.9886,0,865.6431,0,-20.63,3.283,179,17.04,16.57,84.95155,0.157,47.09,54.35,32.57,34.36
"2016-06-12 10:40:00",239597,0.382,73.79,17.55,72.51,537.362,0,865.5631,0,21.1,2.875,316,17.1,16.52,85.81906,0.159,47.09,54.35,32.57,34.36
"2016-06-12 10:50:00",239598,0.329,112.6,18.4,68.88,841.215,0,865.5483,0,7.556,3.005,267,17.18,16.54,136.9339,0.163,47.04,54.29,32.55,34.34
"2016-06-12 11:00:00",239599,0.505,5.468,18.36,64.74,927.1057,0,865.3441,0,-16.94,3.244,186,17.18,16.51,147.4691,0.159,47.09,54.29,32.57,34.34
"2016-06-12 11:10:00",239600,0.545,7.991,18.24,64.47,748.5586,0,865.2936,0,20.68,2.879,269,17.27,16.49,114.9394,0.153,46.98,54.29,32.54,34.34
"2016-06-12 11:20:00",239601,0.369,318.5,18.26,65.42,562.0082,0,865.2578,0,-22.92,3.299,203,17.32,16.49,84.50075,0.15,46.98,54.29,32.54,34.34
"2016-06-12 11:30:00",239602,0.167,187.7,18.69,67.47,390.0186,0,865.2219,0,-20.26,3.273,181,17.35,16.49,56.84651,0.146,46.98,54.29,32.54,34.34
"2016-06-12 11:40:00",239603,0.115,159.6,18.86,66.63,640.6854,0,865.0367,0,21.22,2.868,331,17.38,16.49,102.226,0.159,46.98,54.29,32.54,34.34
"2016-06-12 11:50:00",239604,0.338,100.1,19.43,64.9,727.1891,0,865.0115,0,-10.59,3.174,184,17.45,16.49,113.8332,0.156,46.93,54.29,32.52,34.34
"2016-06-12 12:00:00",239605,0.321,85.4,19.52,65.87,756.1533,0,864.8051,0,-20.47,3.268,190,17.51,16.49,119.0496,0.156,46.98,54.24,32.54,34.33
"2016-06-12 12:10:00",239606,0.593,98.8,19.58,64.84,725.2403,0,864.7272,0,20.43,2.875,313,17.59,16.49,112.5111,0.155,46.93,54.24,32.52,34.33
"2016-06-12 12:20:00",239607,0.606,6.245,19,65.86,494.8665,0,864.5399,0,25.12,2.835,357,17.68,16.49,74.69675,0.151,46.88,54.24,32.51,34.33
"2016-06-12 12:30:00",239608,0.432,332.1,18.58,68.43,584.3405,0,864.5714,0,-21.5,3.285,195,17.69,16.49,92.66064,0.158,46.93,54.24,32.52,34.33
"2016-06-12 12:40:00",239609,0.396,305.8,18.67,69.75,422.7743,0,864.5672,0,-21.55,3.286,171,17.76,16.49,64.61622,0.153,46.88,54.24,32.51,34.33
"2016-06-12 12:50:00",239610,0.294,333,18.64,70.59,431.0251,0,864.5314,0,-22.87,3.298,193,17.87,16.48,66.82476,0.154,46.88,54.24,32.51,34.33
"2016-06-12 13:00:00",239611,0.272,305.8,18.69,71.55,366.2485,0,864.5546,0,21.64,2.867,328,17.92,16.49,56.29721,0.153,46.88,54.24,32.51,34.33
"2016-06-12 13:10:00",239612,0.316,251.1,18.73,72.48,370.5782,0,864.7629,0,-24.73,3.316,181,17.98,16.48,57.94132,0.155,46.82,54.18,32.5,34.32
"2016-06-12 13:20:00",239613,0.351,262.1,18.63,73.55,436.891,0,864.7525,0,-18.55,3.255,187,18.04,16.49,69.09013,0.158,46.82,54.18,32.5,34.32
"2016-06-12 13:30:00",239614,0.219,303.7,18.72,74.61,232.464,0,864.5461,0,-11.63,3.19,180,18.07,16.49,33.23812,0.139,46.82,54.18,32.5,34.32
"2016-06-12 13:40:00",239615,0.182,70.05,18.39,75.77,227.2385,0,864.4198,0,-22.74,3.299,173,18.11,16.48,34.13215,0.15,46.82,54.18,32.5,34.32
"2016-06-12 13:50:00",239616,0.297,193.8,18.55,76.19,420.1537,0,864.283,0,-17.1,3.242,185,18.17,16.49,67.54832,0.16,46.82,54.18,32.5,34.32
"2016-06-12 14:00:00",239617,0.226,132.8,18.44,76.38,208.686,0,864.2618,0,-19.33,3.265,170,18.22,16.49,29.95371,0.143,46.77,54.18,32.48,34.32
"2016-06-12 14:10:00",239618,0.235,89.3,18.21,77.49,207.5898,0,864.0049,0,-21.3,3.286,192,18.27,16.49,30.65832,0.146,46.77,54.18,32.48,34.32
"2016-06-12 14:20:00",239619,0.095,296.5,17.96,79.08,129.2781,0,863.805,0,20.45,2.883,330,18.31,16.49,17.34262,0.129,46.77,54.18,32.48,34.32
"2016-06-12 14:30:00",239620,0.054,271.6,17.72,81.1,77.98959,0,863.7776,0,20.23,2.886,341,18.3,16.5,9.141052,0.117,46.72,54.18,32.47,34.32
"2016-06-12 14:40:00",239621,0.028,317.2,17.48,81.6,76.95235,0,863.7776,0,-20.25,3.28,188,18.39,16.51,10.07675,0.131,46.72,54.12,32.47,34.3
"2016-06-12 14:50:00",239622,0.017,308,17.39,82,75.59293,0,863.7755,0,-21.28,3.289,188,18.41,16.51,10.5124,0.139,46.77,54.12,32.48,34.3
"2016-06-12 15:00:00",239623,0.189,251.9,17.21,82.3,84.03624,0,863.5776,0,-20.48,3.284,186,18.4,16.5,11.95193,0.142,46.72,54.12,32.47,34.3
"2016-06-12 15:10:00",239624,0.104,7.846,17.07,83.6,78.10352,0,863.5186,0,-16.69,3.247,177,18.4,16.51,11.1261,0.142,46.77,54.12,32.48,34.3
"2016-06-12 15:20:00",239625,0.112,276.4,17.01,84.9,62.64705,0,863.6702,0,21.41,2.878,385,18.46,16.5,8.428861,0.131,46.72,54.12,32.47,34.3
"2016-06-12 15:30:00",239626,0.082,284.6,16.9,85.9,47.13557,0,863.7776,0,21.23,2.881,382,18.48,16.49,5.98165,0.125,46.72,54.12,32.47,34.3
"2016-06-12 15:40:00",239627,0.103,265.2,16.62,90.5,44.4521,0,863.7776,0,-16.99,3.253,179,18.49,16.5,5.769508,0.128,46.66,54.12,32.46,34.3
"2016-06-12 15:50:00",239628,0.097,222.3,16.53,93,36.54719,0,863.7797,0,-32.95,3.409,240,18.49,16.53,4.716391,0.129,46.72,54.12,32.47,34.3
"2016-06-12 16:00:00",239629,0.114,242.4,16.29,96.1,35.85246,0,863.7776,0,-20.7,3.29,192,18.5,16.57,4.803614,0.134,46.72,54.12,32.47,34.3
"2016-06-12 16:10:00",239630,0.033,269.4,16.28,97,27.456,0,863.7776,0,-20.67,3.29,191,18.49,16.58,3.648156,0.133,46.66,54.12,32.46,34.3
"2016-06-12 16:20:00",239631,0.118,268.1,16.11,98.6,25.4055,0,863.7776,0,-20.65,3.291,191,18.5,16.58,3.337571,0.13,46.66,54.12,32.46,34.3
"2016-06-12 16:30:00",239632,0.018,250,16.14,98.9,17.26861,0,863.7776,0,-33.11,3.412,214,18.5,16.6,2.0988,0.121,46.66,54.07,32.46,34.29
"2016-06-12 16:40:00",239633,0.087,12,16.06,99.2,16.20837,0,863.7776,0,11.18,2.982,388,18.49,16.66,2.121613,0.13,46.66,54.12,32.46,34.3
"2016-06-12 16:50:00",239634,0.209,23.92,16.03,99.4,22.82641,0,863.7776,0,-21.34,3.299,196,18.47,16.7,3.265925,0.143,46.61,54.07,32.44,34.29
"2016-06-12 17:00:00",239635,0.102,37.12,15.92,100,19.63181,0,863.7698,0,-19.92,3.285,295,18.45,16.7,2.788552,0.14,46.61,54.07,32.44,34.29
"2016-06-12 17:10:00",239636,0.122,353.2,15.77,100,24.77927,0,863.6716,0,19.48,2.903,326,18.5,16.69,3.716776,0.148,46.66,54.07,32.46,34.29
"2016-06-12 17:20:00",239637,0.091,343.9,15.8,100,40.85531,0,863.55,0,-22.78,3.313,200,18.53,16.7,6.183343,0.151,46.66,54.07,32.46,34.29
"2016-06-12 17:30:00",239638,0.043,15.9,15.87,100,39.75164,0,863.4608,0,10.68,2.987,345,18.5,16.75,5.978827,0.15,46.66,54.12,32.46,34.3
"2016-06-12 17:40:00",239639,0.025,110.3,15.97,99.5,39.15429,0,863.2961,0,-33.97,3.421,229,18.45,16.75,6.047018,0.154,46.61,54.12,32.44,34.3
"2016-06-12 17:50:00",239640,0.083,119.4,15.89,100,29.42102,0,863.2753,0,-33.07,3.413,252,18.45,16.78,4.42164,0.15,46.61,54.12,32.44,34.3
"2016-06-12 18:00:00",239641,0.088,107.6,15.77,99.6,21.67208,0,863.1428,0,10.59,2.989,333,18.43,16.82,3.303957,0.152,46.61,54.12,32.44,34.3
"2016-06-12 18:10:00",239642,0.139,107.5,15.75,99.4,22.96508,0,863.0237,0,10.76,2.988,341,18.44,16.82,3.660139,0.159,46.61,54.12,32.44,34.3
"2016-06-12 18:20:00",239643,0.065,183.3,15.6,100,23.07544,0,862.8297,0,10.27,2.993,343,18.45,16.77,3.826909,0.165,46.61,54.07,32.44,34.29
"2016-06-12 18:30:00",239644,0.073,85.4,15.72,99.4,30.82096,0,862.9236,0,10.33,2.991,321,18.4,16.8,5.350095,0.173,46.61,54.12,32.44,34.3
"2016-06-12 18:40:00",239645,0.114,63.84,15.71,98.2,10.6418,0,862.785,0,9.7,2.998,332,18.37,16.8,1.663388,0.155,46.61,54.07,32.44,34.29
"2016-06-12 18:50:00",239646,0.051,76,15.55,100,4.755173,0,862.7977,0,9.69,2.999,316,18.36,16.82,0.6896282,0.143,46.61,54.07,32.44,34.29
"2016-06-12 19:00:00",239647,0.031,31.2,15.6,100,1.73311,0,862.9207,0,9.64,2.999,321,18.38,16.84,0.238721,0.124,46.56,54.07,32.43,34.29
"2016-06-12 19:10:00",239648,0.085,37.82,15.41,100,0,0,862.8701,0,-24.85,3.336,261,18.32,16.87,0,0,46.61,54.07,32.44,34.29
"2016-06-12 19:20:00",239649,0.039,178.4,15.35,100,0,0,862.7802,0,10.75,2.99,335,18.31,16.89,0.07578487,0,46.56,54.07,32.43,34.29
"2016-06-12 19:30:00",239650,0.002,135.8,15.31,100,0,0,862.8431,0,15.36,2.946,429,18.32,16.9,0.3107265,0,46.56,54.07,32.43,34.29
"2016-06-12 19:40:00",239651,0.009,97.8,15.15,100,0,0,862.911,0,-2.417,3.119,210,18.31,16.89,0.45473,0,46.56,54.07,32.43,34.29
"2016-06-12 19:50:00",239652,0.003,107.6,15.16,100,0,0,862.8893,0,-3.443,3.129,244,18.24,16.88,0.4774717,0,46.56,54.07,32.43,34.29
"2016-06-12 20:00:00",239653,0.014,287.6,15.11,100,0,0,862.9091,0,-3.13,3.125,237,18.27,16.88,0.6442121,0,46.56,54.07,32.43,34.29
"2016-06-12 20:10:00",239654,0.057,95.9,15.12,100,0,0,862.9304,0,-23.89,3.328,197,18.28,16.88,0.7162155,0,46.56,54.07,32.43,34.29
"2016-06-12 20:20:00",239655,0.011,26.6,15.08,100,0,0,862.8331,0,-22.19,3.312,193,18.23,16.88,0.6783101,0,46.56,54.07,32.43,34.29
"2016-06-12 20:30:00",239656,0,0,15,100,0,0,862.8263,0,-3.657,3.132,210,18.22,16.88,0.4812638,0,46.56,54.01,32.43,34.27
"2016-06-12 20:40:00",239657,0,0,14.95,100,0,0,862.6215,0,-4.685,3.142,198,18.25,16.88,0.5267429,0,46.56,54.01,32.43,34.27
"2016-06-12 20:50:00",239658,0.055,21.7,14.93,100,0,0,862.5995,0,-22.09,3.312,193,18.18,16.88,0.5115871,0,46.56,54.01,32.43,34.27
"2016-06-12 21:00:00",239659,0.073,172.3,14.9,100,0,0,862.3842,0,-3.555,3.131,204,18.14,16.88,0.5153774,0,46.56,54.01,32.43,34.27
"2016-06-12 21:10:00",239660,0.163,138.2,14.84,100,0,0.5,862.1987,0,-32.87,3.417,255,18.14,16.88,0.4509554,0,46.56,54.01,32.43,34.27
"2016-06-12 21:20:00",239661,0.373,306.2,14.78,100,0,0,861.8375,0,-30.2,3.391,219,18.06,16.88,0.4509554,0,46.56,54.01,32.43,34.27
"2016-06-12 21:30:00",239662,0.685,35.5,14.83,100,0,0,861.7793,0,-12.44,3.218,176,18.11,16.88,0.4547449,0,46.56,54.01,32.43,34.27
"2016-06-12 21:40:00",239663,0.217,289.4,14.78,100,0,0,861.4938,0,-13.93,3.233,170,18.07,16.89,0.4850613,0,46.56,54.01,32.43,34.27
"2016-06-12 21:50:00",239664,0.243,318.4,14.73,100,0,0,861.2725,0,-22.4,3.316,216,18.06,16.89,0.4547449,0,46.56,54.01,32.43,34.27
"2016-06-12 22:00:00",239665,0.32,118.3,14.68,100,0,0,861.0112,0,18.99,2.913,340,18.03,16.89,0.4547449,0,46.56,54.01,32.43,34.27
"2016-06-12 22:10:00",239666,0.043,200,14.6,100,0,0.5,860.8317,0,23.71,2.867,355,18.02,16.89,0.4471658,0,46.56,54.01,32.43,34.27
"2016-06-12 22:20:00",239667,0,0,14.64,100,0,0,860.8487,0,-1.822,3.116,232,17.98,16.9,0.4547449,0,46.51,54.01,32.42,34.27
"2016-06-12 22:30:00",239668,0,0,14.63,100,0,0,860.8151,0,18.99,2.913,307,17.93,16.89,0.4547449,0,46.56,54.01,32.43,34.27
"2016-06-12 22:40:00",239669,0,0,14.48,100,0,0,860.5898,0,-20.91,3.303,188,17.89,16.91,0.1781084,0,46.51,54.01,32.42,34.27
"2016-06-12 22:50:00",239670,0,0,14.39,100,0,0,860.5667,0,14,2.963,276,17.93,16.89,0.3600064,0,46.56,54.01,32.43,34.27
"2016-06-12 23:00:00",239671,0.009,294.2,14.52,100,0,0.5,860.3983,0,8.31,3.018,297,17.93,16.89,0.5002194,0,46.56,54.01,32.43,34.27
"2016-06-12 23:10:00",239672,0.161,128.6,14.42,100,0,0.5,860.2009,0,-3.114,3.13,208,17.89,16.89,0.4547449,0,46.51,54.01,32.42,34.27
"2016-06-12 23:20:00",239673,0.045,212.9,14.46,100,0,0,859.8659,0,-1.979,3.118,303,17.92,16.89,0.4547449,0,46.56,54.01,32.43,34.27
"2016-06-12 23:30:00",239674,0,0,14.5,100,0,0,859.5904,0,-11.47,3.21,169,17.91,16.89,0.4547449,0,46.56,54.01,32.43,34.27
"2016-06-12 23:40:00",239675,0,0,14.59,100,0,0.5,859.504,0,-31.28,3.403,360,17.85,16.89,0.4547449,0,46.56,54.01,32.43,34.27
"2016-06-12 23:50:00",239676,0,0,14.56,100,0,0,859.5444,0,-11.55,3.211,170,17.8,16.88,0.4092704,0,46.56,54.01,32.43,34.27
